Location: Newark
(29.9790°N, 31.1340°E)
Time: 00:58:14
(UTC+00:00)

A-11 Canister half - Pass Details

Date: 29 January 2020
Orbit: 1524 x 1684 km, 47.3° (Epoch: 20 February)

Event Time Altitude Azimuth Distance (km) Brightness Sun altitude
Rises 19:03:37 0° 308° (NW) 4,722 12.1 -46.4°
Reaches altitude 10° 19:06:59 10° 317° (NW) 3,757 11.4 -47.1°
Enters shadow 19:11:03 25° 335° (NNW) 2,763 10.4 -48.0°
